Other Public Products
Issued by NWS Grand Forks, ND

Home | Current Version | Previous Version | Text Only | Print | Product List | Glossary Off
Versions: 1 2 3 4 5 6 7 8 9 10 11 12 13 14 15 16 17 18 19 20 21 22 23 24 25 26 27 28 29 30 31 32 33 34 35 36 37 38 39 40 41 42 43 44 45 46 47 48 49 50

474
FPUS83 KFGF 260631
OPUFGF
PRAIRIE TO PINES WEATHER ROUNDUP
NATIONAL WEATHER SERVICE EASTERN NORTH DAKOTA/GRAND FORKS ND
100 AM CDT SUN MAR 26 2017

 **SATELLITE DATA USED TO AUGMENT SKY COVER AT AUTOMATED STATIONS**
 *****  WEATHER ACROSS EASTERN NORTH DAKOTA  *****

CITY           SKY/WX    TMP DP  RH WIND       PRES   REMARKS
GRAND FORKS    FAIR      32  31  96 S5        30.00S
6HR MIN TEMP:  32; 6HR MAX TEMP:  37;

GRAND FORKS AF FAIR      32  31  97 S7        30.00S
GRAND CITY NWS NOT AVBL
BUXTON         NOT AVBL
DEVILS LAKE    CLOUDY    34  32  92 S9        29.95F
6HR MIN TEMP:  34; 6HR MAX TEMP:  39;

FARGO          CLOUDY    34  33  96 S8        30.00F
6HR MIN TEMP:  30; 6HR MAX TEMP:  39;

WAHPETON ARPT    N/A     34  32  93 CALM      30.01F
$$

 *****  WEATHER ACROSS CENTRAL AND WESTERN NORTH DAKOTA  *****

CITY           SKY/WX    TMP DP  RH WIND       PRES   REMARKS
JAMESTOWN      CLOUDY    32  32 100 S12       29.95F FOG     WCI  23
6HR MIN TEMP:  32; 6HR MAX TEMP:  42;

BISMARCK       CLOUDY    42  34  73 SE5       29.93S
6HR MIN TEMP:  42; 6HR MAX TEMP:  53;

MINOT          CLOUDY    45  35  68 S6        29.88S
6HR MIN TEMP:  43; 6HR MAX TEMP:  50;

MINOT AFB      FAIR      39  35  85 NW9       29.88S
6HR MIN TEMP:  38; 6HR MAX TEMP:  46;

GARRISON         N/A     39  32  76 SE5       29.89F
6HR MIN TEMP:  38; 6HR MAX TEMP:  47;

WILLISTON      FAIR      42  33  70 N5        29.88S
6HR MIN TEMP:  42; 6HR MAX TEMP:  58;

DICKINSON      CLOUDY    44  30  57 W5        29.88S
6HR MIN TEMP:  42; 6HR MAX TEMP:  55;

HETTINGER      CLOUDY    45  32  60 NE3       29.90S
6HR MIN TEMP:  44; 6HR MAX TEMP:  57;

$$

 *****  OTHER OBSERVATIONS NORTHEAST NORTH DAKOTA  *****

CITY           SKY/WX    TMP DP  RH WIND       PRES   REMARKS
WALHALLA       NOT AVBL
LANGDON        MOCLDY    34  34 100 S14       29.93S WCI  24
CAVALIER         N/A     34  32  93 S9        29.96R
GRAFTON        FAIR      32  32 100 S12       30.00S WCI  23
CANDO          NOT AVBL
FORT TOTTEN      N/A     33  33 100 S10       29.95  WCI  25
ROLLA          CLOUDY    34  34 100 SW10      29.91S
RUGBY            N/A     36  36 100 S12       29.90S
 ***** THE ABOVE OBSERVATIONS ARE NON NWS ARE NOT QUALITY
        CONTROLLED AND MAY MIS-REPORT RAIN FOR SNOW...
$$

 *****  OTHER OBSERVATIONS SOUTHEAST NORTH DAKOTA *****

CITY           SKY/WX    TMP DP  RH WIND       PRES   REMARKS
COOPERSTOWN    FAIR      32  32 100 S7        29.98S
VALLEY CITY    CLOUDY    32  32 100 S10       29.99S FOG     WCI  24
OAKES          NOT AVBL
GWINNER        CLOUDY    34  34 100 MISG      29.99F FOG
SHEYENNE NWR     N/A     35  34  96 SW7       29.95
BUFFALO        NOT AVBL
WYNDMERE         N/A     34  34 100 CALM        N/A
 ***** THE ABOVE OBSERVATIONS ARE NON NWS ARE NOT QUALITY
       CONTROLLED AND MAY MIS-REPORT RAIN FOR SNOW...
$$

  *****  WEATHER ACROSS NORTHERN MINNESOTA  *****

CITY           SKY/WX    TMP DP  RH WIND       PRES   REMARKS
FLAG ISLAND    FAIR      32  28  86 S17       30.01S WCI  21
WARROAD        FAIR      34  30  86 S5        30.02R
ROSEAU         FAIR      34  28  80 S7        30.01F
HALLOCK        FAIR      34  32  93 S15       29.97F WCI  24
THF RVR FALLS  FAIR      30  30 100 CALM      30.03  FOG
HALSTAD          N/A     31  30  95 S3          N/A
FOSSTON        FAIR      32  28  86 SE7       30.01S
BAUDETTE       FAIR      31  26  82 SE10      30.03F WCI  22
6HR MIN TEMP:  31; 6HR MAX TEMP:  41;

WASKISH        FAIR      30  28  93 SE6       30.04F WCI  24
CROOKSTON      FAIR      34  32  93 S3        30.02F
$$
  *****  WEATHER ACROSS CENTRAL AND WEST MINNESOTA  *****

CITY           SKY/WX    TMP DP  RH WIND       PRES   REMARKS
BEMIDJI        CLOUDY    30  28  92 SE9       30.02F WCI  22
PARK RAPIDS    CLOUDY    32  26  78 E5        30.01F
6HR MIN TEMP:  31; 6HR MAX TEMP:  44;

WADENA         CLOUDY    34  28  80 E5        30.01S
DETROIT LAKES  CLOUDY    34  30  86 SE7       30.02S
MOORHEAD       CLOUDY    34  30  86 SE7       30.01F
FERGUS FALLS   CLOUDY    36  30  80 E3        30.05S
ELBOW LAKE     CLOUDY    37  35  94 CALM      30.01S
6HR MIN TEMP:  33; 6HR MAX TEMP:  41;

MORRIS MN      CLOUDY    37  36  93 SE5       29.99S
STAPLES        CLOUDY    34  28  80 E5        30.02S
WHEATON        CLOUDY    36  34  93 CALM      30.02S
$$
  *****  WEATHER ELSEWHERE ACROSS MINNESOTA  *****

CITY           SKY/WX    TMP DP  RH WIND       PRES   REMARKS
DULUTH         FRZ DRZL  31  31 100 E13G21    30.05F FOG     WCI  21
6HR MIN TEMP:  30; 6HR MAX TEMP:  32; 6HR PCP: TRACE;

INTRNTL FALLS  CLOUDY    31  26  82 CALM      30.06F
6HR MIN TEMP:  31; 6HR MAX TEMP:  39;

ELY            CLOUDY    30  28  93 E3        30.07F
CLOQUET        CLOUDY    32  30  93 E7        30.05F FOG
BRAINERD       CLOUDY    34  29  82 CALM      30.03F
6HR MIN TEMP:  34; 6HR MAX TEMP:  41;

HIBBING        CLOUDY    30  28  92 E5        30.06F
6HR MIN TEMP:  30; 6HR MAX TEMP:  31;

ALEXANDRIA     CLOUDY    39  34  82 SE9       30.00F
6HR MIN TEMP:  37; 6HR MAX TEMP:  40;

SAINT CLOUD    CLOUDY    36  31  82 E9        30.01F
6HR MIN TEMP:  36; 6HR MAX TEMP:  43;

MINNEAPOLIS    LGT RAIN  38  35  89 E7        30.01F
6HR MIN TEMP:  38; 6HR MAX TEMP:  42; 6HR PCP:  0.05;

$$

  *****  WEATHER ACROSS SOUTH DAKOTA  *****

CITY           SKY/WX    TMP DP  RH WIND       PRES   REMARKS
SIOUX FALLS    CLOUDY    39  37  92 E8        29.96S
6HR MIN TEMP:  39; 6HR MAX TEMP:  41;

BROOKINGS      NOT AVBL
WATERTOWN      CLOUDY    35  35 100 SE6       29.96S FOG
6HR MIN TEMP:  35; 6HR MAX TEMP:  36;

HURON          CLOUDY    40  38  93 SE8       29.95F
6HR MIN TEMP:  40; 6HR MAX TEMP:  43;

SISSETON         N/A     35  35 100 CALM      29.99F
ABERDEEN       CLOUDY    35  34  96 E5        29.97F FOG
6HR MIN TEMP:  34; 6HR MAX TEMP:  42;

MITCHELL       CLOUDY    39  39 100 SE9       29.95F FOG
PIERRE         CLOUDY    39  35  86 SE18      29.90S
6HR MIN TEMP:  39; 6HR MAX TEMP:  52;

MOBRIDGE       FAIR      40  33  76 SE8       29.90R
RAPID CITY     FAIR      48  31  51 N9        29.81R
6HR MIN TEMP:  48; 6HR MAX TEMP:  59;

$$

  *****  SOME WEATHER IN NEARBY STATES *****

CITY           SKY/WX    TMP DP  RH WIND       PRES   REMARKS
GLASGOW MT     CLOUDY    42  29  59 E6        29.88R
6HR MIN TEMP:  39; 6HR MAX TEMP:  58;

GREAT FALLS MT FAIR      30  22  72 SW9       29.92S WCI  22
6HR MIN TEMP:  30; 6HR MAX TEMP:  53;

CHEYENNE WY    CLOUDY    45  29  53 S7        29.85S
6HR MIN TEMP:  45; 6HR MAX TEMP:  54;

SCOTTSBLUFF NE FAIR      48  33  56 E9        29.81F
6HR MIN TEMP:  48; 6HR MAX TEMP:  65;

OMAHA NE       CLOUDY    41  37  86 N8        29.91F
6HR MIN TEMP:  41; 6HR MAX TEMP:  43; 6HR PCP: TRACE;

DES MOINES IA  DRIZZLE   42  41  96 NE10      29.87F FOG
6HR MIN TEMP:  42; 6HR MAX TEMP:  44; 6HR PCP: TRACE;

DAVENPORT IA   CLOUDY    45  45 100 E10       29.86F FOG
6HR MIN TEMP:  44; 6HR MAX TEMP:  48; 6HR PCP:  0.02;

CHICAGO IL     CLOUDY    47  44  90 NE8       29.92F FOG
6HR MIN TEMP:  43; 6HR MAX TEMP:  47; 6HR PCP:  0.07;

EAU CLAIRE WI  MIX PCPN  35  34  96 E6        30.01F FOG
6HR MIN TEMP:  35; 6HR MAX TEMP:  39; 6HR PCP: TRACE;

LA CROSSE WI   CLOUDY    38  36  92 NE8       29.99F
6HR MIN TEMP:  38; 6HR MAX TEMP:  39; 6HR PCP: TRACE;

$$

  *****  SOME NATIONAL WEATHER *****

CITY           SKY/WX    TMP DP  RH WIND       PRES   REMARKS
LA GUARDIA NY  CLOUDY    43  33  68 NE14      30.41R
6HR MIN TEMP:  43; 6HR MAX TEMP:  48;



USA.gov is the U.S. government's official web portal to all federal, state and local government web resources and services.